Location: Kuffner-Sternwarte
(48.2130°N, 16.2960°E)
Time: 19:01:15
(UTC+02:00)

COROT - Pass Details

Date: 11 August 2018
Orbit: 599 x 890 km, 90.0° (Epoch: 18 August)

Event Time Altitude Azimuth Distance (km) Brightness Sun altitude
Rises 03:58:22 0° 156° (SSE) 3,281 9.1 -15.1°
Reaches altitude 10° 04:00:54 10° 150° (SSE) 2,310 8.3 -14.8°
Maximum altitude 04:05:40 41° 81° (E) 1,051 7.2 -14.3°
Drops below altitude 10° 04:10:07 10° 12° (NNE) 2,149 9.2 -13.7°
Sets 04:12:24 0° 5° (N) 3,027 9.9 -13.4°
